Weather in Baranikha

Russia / Chukotka Autonomous Okrug     68°29′58″N   168°15′54″E
temp.,
°C
wind,
m/s
gust,
m/s
humid.,
%
clouds,
%
prec.,
mm/h
press.,
hPa
HPBL,
m
22 october, fri
fri2200:00−15wnw2197100 1.1 100626
03:00−16w2297100 0.3 100541
06:00−14wnw2596100 1.1 1004294
09:00−15wnw2497100 0.6 1004202
12:00−14wnw2595100 0.9 1004301
15:00−14sw2296100 0.3 100473
18:00−18sw229798 0.6 100617
21:00−20sw229585 0.1 100716
23 october, sat
sat2300:00−18ssw2296100 0.1 100754
03:00−19ssw229798 0.2 100838
06:00−19ssw229699 0.3 100940
09:00−19ssw229690 0.1 101042
12:00−17ssw229588 0.2 101178
15:00−17ssw229691 0.1 101135
18:00−19ssw229790 0.3 101320
21:00−19ssw229695 0.1 101423
24 october, sun
sun2400:00−19ssw229885 0.2 101521
03:00−19ssw229788 0.1 101525
06:00−20ssw229983 0.2 101613
09:00−20ssw229876 0.1 101617
12:00−21ssw229865 0.1 101718
15:00−22ssw229885 0.0 101713
18:00−24ssw329966 0.0 101713
21:00−26ssw339946 0.0 101716
25 october, mon
mon2500:00−26s339923 0.0 101622
03:00−25s339925 0.0 101525
06:00−26s439923 0.0 101526
09:00−26s439923 0.0 101431
12:00−23s34965 0.0 101341
15:00−24s33955 0.0 101227
18:00−26s33966 0.0 101221
21:00−26s33976 0.0 101223
26 october, tue
tue2600:00−26s339710 0.0 101220
03:00−27s339717 0.0 101217
06:00−28s33976 0.0 101214
09:00−28ssw329815 0.0 101313
12:00−25ssw229820 0.0 101315
15:00−24ssw229977 0.0 101313
18:00−21sw119980 0.1 101411
21:00−21sw1110079 0.1 101510